This demonstration page uses our WeatherBlox Daily Observations layout. Learn more.

Left ArrowRight Arrow

Hourly Observations for March 5, 2023

Temp ( °F °C ) Dew Point ( °F °C ) Humidity (%) Winds ( mph kmh ) Pressure ( in mb ) Visibility ( mi km ) Precip ( " mm )
12:56 am 00:56 Cloudy 42 5.6 33 0.6 70 70 E 10 17 29.99 1016 10 16 0.00 0.00
1:56 am 01:56 Mostly Cloudy 40 4.4 34 1.1 79 79 E 9 15 29.97 1015 10 16 0.00 0.00
2:56 am 02:56 Partly Cloudy 38 3.3 33 0.6 82 82 E 9 15 29.95 1014 10 16 0.00 0.00
3:56 am 03:56 Mostly Cloudy 41 5 37 2.8 86 86 E 9 15 29.93 1014 10 16 0.00 0.00
4:56 am 04:56 Clear 43 6.1 38 3.3 82 82 E 9 15 29.91 1013 10 16 0.00 0.00
5:56 am 05:56 Clear 44 6.7 39 3.9 82 82 SE 9 15 29.90 1013 10 16 0.00 0.00
6:56 am 06:56 Sunny 43 6.1 39 3.9 86 86 SE 12 19 29.91 1013 10 16 0.00 0.00
7:56 am 07:56 Sunny 45 7.2 41 5 86 86 SE 12 19 29.89 1012 10 16 0.00 0.00
8:56 am 08:56 Sunny 49 9.4 42 5.6 77 77 SSE 17 28 29.89 1012 10 16 0.00 0.00
9:56 am 09:56 Sunny 55 12.8 45 7.2 69 69 S 23 37 29.85 1011 10 16 0.00 0.00
10:56 am 10:56 Sunny 61 16.1 46 7.8 58 58 S 21 33 29.83 1010 10 16 0.00 0.00
11:56 am 11:56 Sunny 63 17.2 45 7.2 52 52 SSW 22 35 29.80 1009 10 16 0.00 0.00
12:56 pm 12:56 Sunny 66 18.9 44 6.7 45 45 SW 20 31 29.77 1008 10 16 0.00 0.00
1:56 pm 13:56 Sunny 68 20 42 5.6 39 39 SSW 22 35 29.74 1007 10 16 0.00 0.00
2:56 pm 14:56 Sunny 71 21.7 39 3.9 31 31 SSW 21 33 29.72 1007 10 16 0.00 0.00
3:56 pm 15:56 Sunny 73 22.8 40 4.4 30 30 SSW 18 30 29.70 1006 10 16 0.00 0.00
4:56 pm 16:56 Sunny 71 21.7 40 4.4 32 32 SSW 22 35 29.70 1006 10 16 0.00 0.00
5:56 pm 17:56 Sunny 68 20 40 4.4 36 36 S 16 26 29.71 1006 10 16 0.00 0.00
6:56 pm 18:56 Clear 63 17.2 42 5.6 46 46 S 13 20 29.73 1007 10 16 0.00 0.00
7:56 pm 19:56 Clear 66 18.9 44 6.7 45 45 S 17 28 29.72 1006 10 16 0.00 0.00
8:56 pm 20:56 Clear 65 18.3 43 6.1 45 45 S 18 30 29.71 1006 10 16 0.00 0.00
9:56 pm 21:56 Clear 64 17.8 42 5.6 45 45 S 20 31 29.70 1006 10 16 0.00 0.00
10:56 pm 22:56 Clear 61 16.1 43 6.1 51 51 S 20 31 29.69 1006 10 16 0.00 0.00
11:56 pm 23:56 Clear 62 16.7 45 7.2 53 53 S 23 37 29.67 1005 10 16 0.00 0.00

Powered by Vaisala Xweather